This is the latest recevied weather packets stored in our database for station/object AJ5AG. If no packets are shown the sender has not sent any weather packets the latest 10 day(s).
| Time | Temp. | Humidity | Pressure | Rain* | Wind** | Luminosity | Snow |
|---|---|---|---|---|---|---|---|
| 1777766435 | 21.11° C | 62% | 1021.3 hPa | 0 mm | - | 20 W/m² | - |
| 1777766131 | 21.11° C | 60% | 1021.2 hPa | 0 mm | - | 23 W/m² | - |
| 1777765830 | 21.11° C | 58% | 1021.1 hPa | 0 mm | - | 23 W/m² | - |
| 1777765525 | 21.67° C | 57% | 1021.2 hPa | 0 mm | - | 23 W/m² | - |
| 1777765223 | 21.67° C | 55% | 1021.3 hPa | 0 mm | - | 23 W/m² | - |
| 1777764918 | 22.22° C | 53% | 1021.2 hPa | 0 mm | - | 24 W/m² | - |
| 1777764616 | 22.22° C | 54% | 1021.1 hPa | 0 mm | - | 25 W/m² | - |
| 1777764311 | 22.78° C | 49% | 1021.1 hPa | 0 mm | - | 26 W/m² | - |
| 1777764009 | 22.78° C | 49% | 1021.1 hPa | 0 mm | - | 30 W/m² | - |
| 1777763706 | 22.78° C | 49% | 1021.1 hPa | 0 mm | - | 51 W/m² | - |
| 1777763404 | 23.33° C | 50% | 1021.2 hPa | 0 mm | - | 120 W/m² | - |
| 1777763102 | 23.33° C | 51% | 1021.1 hPa | 0 mm | - | 53 W/m² | - |
| 1777762800 | 23.33° C | 46% | 1021 hPa | 0 mm | - | 50 W/m² | - |
| 1777762495 | 23.33° C | 47% | 1021.1 hPa | 0 mm | - | 63 W/m² | - |
| 1777762192 | 23.33° C | 51% | 1021.1 hPa | 0 mm | - | 64 W/m² | - |
| 1777761888 | 23.33° C | 52% | 1021 hPa | 0 mm | - | 67 W/m² | - |
| 1777761585 | 23.33° C | 48% | 1021.2 hPa | 0 mm | - | 69 W/m² | - |
| 1777761283 | 22.78° C | 54% | 1021.3 hPa | 0 mm | - | 65 W/m² | - |
| 1777760981 | 22.78° C | 48% | 1021.3 hPa | 0 mm | - | 65 W/m² | - |
| 1777760679 | 22.78° C | 50% | 1021.3 hPa | 0 mm | - | 68 W/m² | - |
| 1777760374 | 22.78° C | 49% | 1021.3 hPa | 0 mm | - | 48 W/m² | - |
| 1777760071 | 22.78° C | 50% | 1021.3 hPa | 0 mm | - | 51 W/m² | - |
| 1777759768 | 22.78° C | 48% | 1021.2 hPa | 0 mm | - | 98 W/m² | - |
| 1777759463 | 23.33° C | 49% | 1021.4 hPa | 0 mm | - | 56 W/m² | - |
| 1777759160 | 23.89° C | 54% | 1021.3 hPa | 0 mm | - | 48 W/m² | - |
* Rain latest hour (hover to see other rain measurements)
** Current wind speed in m/s (hover to see current wind gust speed)